GEFSMA_con_cape1000_048.txt.gz
Probability
94 87 81 84 84 74 81 77 84 87 87 90 87 90 90 90 87 77 65 87 94 90 94 94 94 97 100 100 100 100 100 100 100 100 100 100 100 100 97 97 94 84 77
87 71 68 61 58 55 52 61 61 61 55 71 74 81 81 68 84 71 68 71 94 90 90 90 90 94 97 100 100 100 100 100 100 100 100 100 100 100 100 100 100 84 68
87 68 58 58 48 48 48 39 32 26 19 26 32 42 42 45 55 58 52 55 58 81 74 81 87 87 90 94 100 100 100 100 100 100 100 100 97 100 100 100 97 90 55
68 65 45 39 39 42 29 23 26 23 19 19 13 13 13 23 39 39 39 48 58 58 65 84 87 84 90 97 97 97 97 100 100 100 100 100 97 97 90 90 94 77 42
48 35 23 19 16 16 13 13 19 16 10 6 6 3 3 10 13 29 39 42 42 52 52 52 81 84 81 94 94 97 94 94 97 97 100 100 100 97 68 61 68 55 29
29 16 10 10 10 6 6 6 6 3 3 0 3 0 0 3 6 10 16 23 19 32 32 32 35 52 81 84 84 77 94 94 94 97 97 100 100 100 77 55 48 39 19
16 10 6 3 3 3 3 6 6 6 3 3 0 0 0 0 0 3 6 3 6 16 19 23 16 26 35 58 68 74 84 90 84 90 94 97 97 100 84 58 42 23 16
3 0 3 0 3 3 0 0 6 6 0 3 0 0 0 0 0 0 0 3 6 6 10 16 16 19 29 29 35 45 74 81 84 77 81 87 87 81 81 74 55 19 10
3 0 0 0 0 0 0 0 0 0 0 0 0 0 0 0 0 0 0 0 0 0 0 3 19 16 13 23 23 23 55 52 65 77 81 77 68 58 65 71 68 35 16
0 0 0 0 0 0 0 0 0 0 0 0 0 0 0 0 0 0 0 0 0 0 0 3 6 6 10 13 13 13 13 19 35 58 61 61 55 55 52 71 81 77 39
0 0 0 0 0 0 0 0 0 0 0 0 0 0 0 0 0 0 0 0 0 0 0 0 3 0 0 3 0 6 10 3 13 26 42 55 58 55 42 52 71 84 87
0 0 0 0 3 0 0 0 0 0 0 0 0 0 0 0 0 0 0 0 0 0 0 0 0 3 0 0 0 3 3 3 3 0 3 6 16 32 42 52 68 74 81
0 0 0 0 0 0 0 0 0 0 0 0 0 0 0 0 0 0 0 0 0 0 0 0 0 0 0 0 0 0 0 0 0 0 0 0 0 0 13 29 45 48 61
0 0 0 0 0 0 0 0 0 0 0 0 0 0 0 0 0 0 0 0 0 0 0 0 0 0 0 0 0 0 0 0 0 0 0 0 0 0 0 3 6 6 10
0 0 0 0 0 0 0 0 0 0 0 0 0 0 0 0 0 0 0 0 0 0 0 0 0 0 0 0 0 0 0 0 0 0 0 0 0 0 0 0 0 3 3
0 0 0 0 0 0 0 0 0 0 0 0 0 0 0 0 0 0 0 0 0 0 0 0 0 0 0 0 0 0 0 0 0 0 0 0 0 0 0 0 0 0 0
0 0 0 0 0 0 0 0 0 0 0 0 0 0 0 0 0 0 0 0 0 0 0 0 0 0 0 0 0 0 0 0 0 0 0 0 0 0 0 0 0 0 0
0 0 0 0 0 0 0 0 0 0 0 0 0 0 0 0 0 0 0 0 0 0 0 0 0 0 0 0 0 0 0 0 0 0 0 0 0 0 0 0 0 0 0
0 0 0 0 0 0 0 0 0 0 0 0 0 0 0 0 0 0 0 0 0 0 0 0 0 0 0 0 0 0 0 0 0 0 0 0 0 0 0 0 0 0 0
0 0 0 0 0 0 0 0 0 0 0 0 0 0 0 0 0 0 0 0 0 0 0 0 0 0 0 0 0 0 0 0 0 0 0 0 0 0 0 0 0 0 0
0 0 0 0 0 0 0 0 0 0 0 0 0 0 0 0 0 0 0 0 0 0 0 0 0 0 0 0 0 0 0 0 0 0 0 0 0 0 0 0 0 0 0
0 0 0 0 0 0 0 0 0 0 0 0 0 0 0 0 0 0 0 0 0 0 0 0 0 0 0 0 0 0 0 0 0 0 0 0 0 0 0 0 0 0 0
0 0 0 0 0 0 0 0 0 0 0 0 0 0 0 0 0 0 0 0 0 0 0 0 0 0 0 0 0 0 0 0 0 0 0 0 0 0 0 0 0 0 0
0 0 0 0 0 0 0 0 0 0 0 0 0 0 0 0 0 0 0 0 0 0 0 0 0 0 0 0 0 0 0 0 0 0 0 0 0 0 0 0 0 0 0
0 0 0 0 0 0 0 0 0 0 0 0 0 0 0 0 0 0 0 0 0 0 0 0 0 0 0 0 0 0 0 0 0 0 0 0 0 0 0 0 0 0 0
0 0 0 0 0 0 0 0 0 0 0 0 0 0 0 0 0 0 0 0 0 0 0 0 0 0 0 0 0 0 0 0 0 0 0 0 0 0 0 0 0 0 0

GEFSMA_con_cape1000_054.txt.gz
Probability
84 77 81 74 68 74 71 74 81 81 74 77 87 94 90 94 90 90 87 87 90 90 94 97 94 94 90 90 90 94 94 90 94 90 90 94 97 97 97 97 94 94 84
74 65 68 52 45 45 45 42 48 48 52 58 58 68 71 77 87 87 87 84 84 90 94 90 87 87 90 90 87 87 90 94 94 84 87 90 94 90 90 94 90 87 68
74 68 55 42 32 26 26 23 23 23 29 29 29 29 35 52 55 58 77 81 74 74 87 90 90 90 84 81 84 84 84 90 87 77 77 81 84 90 87 81 77 61 42
52 52 48 29 19 13 13 13 6 10 10 10 10 10 13 13 26 35 39 48 55 58 68 84 87 87 81 87 84 84 81 77 81 77 81 74 71 74 77 71 71 48 23
45 39 29 19 16 6 6 6 3 0 0 0 3 3 3 3 10 10 19 32 39 39 42 45 61 84 87 81 81 87 84 87 81 84 87 74 74 65 58 52 55 32 26
29 23 16 16 6 6 6 3 3 0 0 0 0 0 0 0 0 3 3 10 19 23 35 35 58 61 74 97 94 87 90 87 77 68 77 81 81 68 45 39 42 35 26
6 13 13 10 6 6 6 0 0 0 0 0 0 0 0 0 0 0 0 0 6 10 6 16 26 29 45 55 77 94 90 90 84 71 68 65 71 61 45 32 19 19 16
6 6 3 3 3 6 0 0 0 0 0 0 0 0 0 0 0 0 0 0 0 0 0 3 6 13 26 29 19 39 84 90 84 84 74 65 52 42 35 19 10 3 3
0 3 3 3 3 0 0 0 0 0 0 0 0 0 0 0 0 0 0 0 0 0 0 0 6 10 16 16 19 6 48 77 68 77 77 71 42 19 16 19 19 3 3
0 0 0 0 0 0 0 0 0 0 0 0 0 0 0 0 0 0 0 0 0 0 0 0 0 3 6 16 13 3 16 26 61 68 74 77 52 19 13 16 42 48 13
0 0 0 0 0 0 0 0 0 0 0 0 0 0 0 0 0 0 0 0 0 0 0 0 0 0 0 0 6 10 10 13 19 42 52 58 61 42 29 29 42 55 61
0 0 0 0 0 0 0 0 0 0 0 0 0 0 0 0 0 0 0 0 0 0 0 0 0 0 0 0 3 3 3 0 3 10 16 26 42 42 39 32 42 52 58
0 0 0 0 0 0 0 0 0 0 0 0 0 0 0 0 0 0 0 0 0 0 0 0 0 0 0 0 0 0 0 0 0 0 0 0 6 6 6 10 19 48 52
0 0 0 0 0 0 0 0 0 0 0 0 0 0 0 0 0 0 0 0 0 0 0 0 0 0 0 0 0 0 0 0 0 0 0 0 0 0 0 0 3 3 10
0 0 0 0 0 0 0 0 0 0 0 0 0 0 0 0 0 0 0 0 0 0 0 0 0 0 0 0 0 0 0 0 0 0 0 0 0 0 0 0 0 0 0
0 0 0 0 0 0 0 0 0 0 0 0 0 0 0 0 0 0 0 0 0 0 0 0 0 0 0 0 0 0 0 0 0 0 0 0 0 0 0 0 0 0 0
0 0 0 0 0 0 0 0 0 0 0 0 0 0 0 0 0 0 0 0 0 0 0 0 0 0 0 0 0 0 0 0 0 0 0 0 0 0 0 0 0 0 0
0 0 0 0 0 0 0 0 0 0 0 0 0 0 0 0 0 0 0 0 0 0 0 0 0 0 0 0 0 0 0 0 0 0 0 0 0 0 0 0 0 0 0
0 0 0 0 0 0 0 0 0 0 0 0 0 0 0 0 0 0 0 0 0 0 0 0 0 0 0 0 0 0 0 0 0 0 0 0 0 0 0 0 0 0 0
0 0 0 0 0 0 0 0 0 0 0 0 0 0 0 0 0 0 0 0 0 0 0 0 0 0 0 0 0 0 0 0 0 0 0 0 0 0 0 0 0 0 0
0 0 0 0 0 0 0 0 0 0 0 0 0 0 0 0 0 0 0 0 0 0 0 0 0 0 0 0 0 0 0 0 0 0 0 0 0 0 0 0 0 0 0
0 0 0 0 0 0 0 0 0 0 0 0 0 0 0 0 0 0 0 0 0 0 0 0 0 0 0 0 0 0 0 0 0 0 0 0 0 0 0 0 0 0 0
0 0 0 0 0 0 0 0 0 0 0 0 0 0 0 0 0 0 0 0 0 0 0 0 0 0 0 0 0 0 0 0 0 0 0 0 0 0 0 0 0 0 0
0 0 0 0 0 0 0 0 0 0 0 0 0 0 0 0 0 0 0 0 0 0 0 0 0 0 0 0 0 0 0 0 0 0 0 0 0 0 0 0 0 0 0
0 0 0 0 0 0 0 0 0 0 0 0 0 0 0 0 0 0 0 0 0 0 0 0 0 0 0 0 0 0 0 0 0 0 0 0 0 0 0 0 0 0 0
0 0 0 0 0 0 0 0 0 0 0 0 0 0 0 0 0 0 0 0 0 0 0 0 0 0 0 0 0 0 0 0 0 0 0 0 0 0 0 0 0 0 0

GEFSMA_con_cape1000_060.txt.gz
Probability
97 97 100 100 100 94 94 97 90 90 94 94 90 87 87 90 87 90 94 97 94 97 100 100 100 100 100 97 97 97 97 97 97 94 94 97 100 100 97 97 100 97 90
94 94 97 100 94 87 87 90 90 90 87 87 87 90 94 84 87 90 90 94 94 94 97 100 100 100 100 97 97 97 97 97 90 87 81 87 100 97 94 94 90 90 87
84 84 90 94 84 87 87 94 87 81 77 74 77 77 84 84 81 81 81 90 90 90 94 94 94 97 94 97 94 97 97 94 90 81 71 74 77 90 90 90 87 84 71
65 74 77 68 74 81 81 74 71 61 68 71 68 65 68 71 68 74 71 74 74 77 84 90 94 94 97 97 97 94 97 97 87 81 68 71 68 74 71 71 74 65 39
48 58 65 68 71 74 61 48 52 61 58 61 48 55 52 48 52 52 48 55 58 77 71 77 87 87 87 94 97 97 100 97 87 81 77 74 74 65 52 52 55 42 16
32 39 42 48 48 48 55 58 55 65 61 52 23 16 23 16 19 19 19 23 32 32 32 48 61 77 87 87 90 97 100 97 90 87 84 81 77 71 48 39 29 23 23
19 29 32 39 35 32 39 32 45 42 39 32 19 10 0 0 6 16 10 10 10 13 19 26 48 61 74 74 71 87 100 97 97 84 84 84 77 77 61 35 19 16 10
23 19 32 23 29 32 35 39 58 45 23 23 10 6 3 0 6 0 3 3 3 6 10 13 19 42 58 61 39 61 77 84 97 94 87 84 81 74 68 52 26 19 10
13 19 23 23 23 26 29 48 58 52 23 16 13 10 3 0 0 0 0 3 3 3 3 3 3 13 35 48 61 35 65 68 77 90 100 90 81 61 52 42 35 29 13
3 3 10 10 23 26 32 32 23 39 39 19 10 26 6 0 0 0 0 0 3 3 0 0 0 6 23 16 48 23 29 35 65 74 87 100 87 58 35 42 52 45 32
0 3 3 3 13 19 19 23 32 32 26 32 10 13 10 6 0 0 0 0 0 0 0 0 0 3 6 13 45 10 10 0 6 39 65 81 81 77 65 52 61 52 58
0 0 3 0 3 10 10 16 19 19 32 35 32 23 16 10 13 3 3 0 0 0 0 0 0 0 3 6 6 0 0 0 0 3 16 29 58 61 65 65 58 61 58
0 0 0 0 0 3 3 3 3 10 19 26 39 35 32 23 23 19 6 0 0 0 0 0 0 3 0 13 10 0 0 0 0 3 3 3 19 39 45 48 58 58 52
0 0 0 0 0 0 0 3 0 3 10 16 13 29 55 35 35 32 19 13 6 0 0 0 0 0 3 3 0 0 10 0 0 0 0 0 0 3 6 13 16 29 26
0 0 0 0 0 0 0 3 3 0 3 0 6 16 29 42 42 39 35 26 19 13 13 16 6 3 3 6 0 3 3 0 0 0 0 0 0 0 0 3 3 3 3
0 0 0 0 0 0 0 0 3 0 0 0 3 6 13 23 26 39 48 39 32 32 13 10 23 3 3 0 0 0 0 0 0 0 0 0 0 0 0 0 0 0 0
0 0 0 0 0 0 0 0 0 0 0 0 0 0 0 10 13 19 26 32 32 39 42 29 26 19 16 3 0 0 0 0 0 0 0 0 0 0 0 0 0 0 0
0 0 0 0 0 0 0 0 0 0 0 0 0 0 0 0 3 13 26 16 32 45 42 42 39 35 19 6 3 0 0 0 0 0 0 0 0 0 0 0 0 0 0
0 0 0 0 0 0 0 0 0 0 0 0 0 0 0 0 0 3 10 13 16 3 39 42 42 39 16 3 0 0 0 0 0 0 0 0 0 0 0 0 0 0 0
0 0 0 0 0 0 0 0 0 0 0 0 0 0 0 0 0 0 0 3 13 10 16 35 45 35 16 6 0 0 0 0 0 0 0 0 0 0 0 0 0 0 0
0 0 0 0 0 0 0 0 0 0 0 0 0 0 0 0 0 0 0 0 0 3 6 16 23 26 19 6 6 3 0 0 3 0 0 0 0 0 0 0 0 0 0
0 0 0 0 0 0 0 0 0 0 0 0 0 0 0 0 0 0 0 0 0 0 6 10 13 6 16 10 10 0 3 3 0 3 0 0 0 0 0 0 0 0 0
0 0 0 0 0 0 0 0 0 0 0 0 0 0 0 0 0 0 0 0 0 0 0 3 10 10 13 13 10 3 0 0 0 0 0 0 0 0 0 0 0 0 0
0 0 0 0 0 0 0 0 0 0 0 0 0 0 0 0 0 0 0 0 0 0 0 0 6 13 16 26 16 3 6 3 0 0 0 0 0 0 0 0 0 0 0
0 0 0 0 3 0 0 0 0 0 0 0 0 0 0 0 0 0 0 0 0 0 0 0 0 0 0 0 0 3 3 3 0 0 0 0 0 0 0 0 0 0 0
0 0 0 0 0 3 0 0 0 0 0 0 0 0 0 0 0 0 0 0 0 0 0 0 0 0 0 0 0 0 0 3 0 0 0 0 0 0 0 0 0 0 0

GEFSMA_con_cape1000_066.txt.gz
Probability
100 97 97 97 97 94 94 90 94 87 90 94 90 90 87 87 77 77 87 90 94 90 97 100 100 100 100 100 100 100 100 100 100 97 97 97 97 100 100 100 100 100 97
100 100 97 97 97 90 87 87 87 87 84 90 84 81 81 74 74 87 81 87 90 87 97 100 100 100 100 100 100 97 97 100 100 97 94 97 97 94 97 97 100 100 90
97 97 97 94 81 81 84 81 81 81 81 74 74 71 68 71 71 81 81 87 90 90 94 97 100 100 100 100 100 100 97 97 97 97 97 90 87 94 94 94 97 90 77
84 87 84 84 81 74 74 65 71 52 45 42 48 65 61 61 61 65 74 77 84 71 90 97 97 100 100 100 100 100 97 94 97 97 94 90 87 84 84 81 87 84 61
77 77 77 81 71 68 65 42 42 32 35 32 32 48 58 61 55 55 61 65 74 81 81 90 97 100 100 100 100 100 100 97 97 97 94 90 87 74 68 68 65 61 45
65 55 58 68 65 55 39 29 26 29 42 39 13 16 39 48 58 48 58 58 58 61 61 74 84 87 100 100 100 100 100 100 97 97 94 90 97 68 55 48 48 45 29
48 48 39 52 42 32 35 26 19 19 23 29 23 26 23 19 26 45 52 52 42 55 65 74 71 77 61 84 90 100 100 100 100 100 97 94 94 77 55 42 39 29 26
35 23 32 32 29 32 32 23 23 29 16 16 13 3 6 3 35 0 13 42 26 39 42 52 71 81 81 58 39 71 97 100 97 97 97 90 84 77 58 45 32 10 6
19 29 23 23 23 29 32 29 26 16 10 10 10 3 0 0 3 10 6 6 13 19 26 29 61 74 68 81 74 32 74 94 94 97 97 90 81 68 55 55 39 13 6
16 19 19 13 10 13 19 19 19 26 16 6 10 10 6 10 3 3 13 10 16 26 16 6 23 45 58 58 74 45 35 45 74 84 90 94 81 68 52 58 65 55 16
13 10 10 10 10 6 6 6 10 13 16 13 6 16 10 16 10 6 3 3 13 19 16 16 10 13 32 32 61 32 13 19 29 61 74 77 81 84 81 77 77 77 71
10 6 6 3 3 3 3 3 3 0 6 3 10 10 10 10 10 3 0 0 3 6 10 26 16 13 23 29 19 10 10 0 0 0 19 52 65 71 81 84 81 81 74
0 0 0 0 0 3 3 0 0 0 0 0 6 6 6 3 10 10 6 0 3 16 23 26 23 39 16 19 0 0 3 0 0 0 0 0 23 32 42 61 77 71 68
0 0 0 0 0 0 0 0 0 0 0 0 0 0 6 6 13 13 16 0 3 3 6 13 29 29 35 23 0 0 0 0 0 0 0 0 0 0 10 23 23 42 45
0 0 0 3 0 0 0 0 0 0 0 0 3 0 0 6 13 19 19 6 3 0 0 6 23 55 52 13 0 3 3 0 0 0 0 0 0 0 3 3 3 6 10
0 0 0 0 0 0 0 0 0 0 0 0 0 0 0 0 3 6 10 10 3 3 0 0 16 16 23 3 0 10 0 0 0 0 0 0 0 0 0 0 0 0 0
0 0 0 0 0 0 0 0 0 0 0 0 0 0 0 0 0 0 6 6 6 3 0 0 6 10 16 0 0 3 0 0 0 0 0 0 0 0 0 0 0 0 0
0 0 0 0 0 0 0 0 0 0 0 0 0 0 0 0 0 0 0 0 0 6 3 3 0 0 0 3 3 0 0 0 0 0 0 0 0 0 0 0 0 0 0
0 0 0 0 0 0 0 0 0 0 0 0 0 0 0 0 0 0 0 0 0 0 0 3 0 0 3 3 3 0 0 0 0 0 0 0 0 0 0 0 0 0 0
0 0 0 0 0 0 0 0 0 0 0 0 0 0 0 0 0 0 0 0 0 0 0 0 0 0 0 0 3 0 0 0 0 0 0 0 0 0 0 0 0 0 0
0 0 0 0 0 0 0 0 0 0 0 0 0 0 0 0 0 0 0 0 0 0 0 0 0 0 0 0 0 0 0 0 0 0 0 0 0 0 0 0 0 0 0
0 0 0 0 0 0 0 0 0 0 0 0 0 0 0 0 0 0 0 0 0 0 0 0 0 0 0 0 0 0 0 0 0 0 0 0 0 0 0 0 0 0 0
0 0 0 0 0 0 0 0 0 0 0 0 0 0 0 0 0 0 0 0 0 0 0 0 0 0 0 0 0 0 0 0 0 0 0 0 0 0 0 0 0 0 0
0 0 0 0 0 0 0 0 0 0 0 0 0 0 0 0 0 0 0 0 0 0 0 0 0 0 0 0 0 0 0 0 0 0 0 0 0 0 0 0 0 0 0
0 0 0 0 0 0 0 0 0 0 0 0 0 0 0 0 0 0 0 0 0 0 0 0 0 0 0 0 0 0 0 0 0 0 0 0 0 0 0 0 0 0 0
0 0 0 0 0 0 0 0 0 0 0 0 0 0 0 0 0 0 0 0 0 0 0 0 0 0 0 0 0 0 0 0 0 0 0 0 0 0 0 0 0 0 0